| time (UTC) | temp C | wind direction | speed KPH | gust KPH | rain 1hr cm | rain 24hr cm | rain mn cm | humidity % | barometer mb |
| 20260508035813 | 10 | 0 | 0.0 | 0.0 | 0.00 | 0.00 | 0.00 | 46 | 1004.1 |
| 20260508035306 | 11 | 0 | 0.0 | 0.0 | 0.00 | 0.00 | 0.00 | 45 | 1004.1 |
| 20260508034801 | 11 | 0 | 0.0 | 0.0 | 0.00 | 0.00 | 0.00 | 46 | 1004.1 |
| 20260508034253 | 11 | 0 | 0.0 | 0.0 | 0.00 | 0.00 | 0.00 | 46 | 1004.1 |
| 20260508033752 | 11 | 0 | 0.0 | 0.0 | 0.00 | 0.00 | 0.00 | 46 | 1004.0 |
| 20260508033244 | 11 | 0 | 0.0 | 0.0 | 0.00 | 0.00 | 0.00 | 44 | 1004.1 |
| 20260508033217 | 11 | 0 | 0.0 | 0.0 | 0.00 | 0.00 | 0.00 | 43 | 1004.1 |
| 20260508032203 | 11 | 0 | 0.0 | 0.0 | 0.00 | 0.00 | 0.00 | 43 | 1004.0 |
| 20260508031636 | 12 | 0 | 0.0 | 0.0 | 0.00 | 0.00 | 0.00 | 43 | 1004.0 |
| 20260508031407 | 12 | 0 | 0.0 | 0.0 | 0.00 | 0.00 | 0.00 | 42 | 1004.1 |
| 20260508030634 | 12 | 28 | 0.0 | 0.0 | 0.00 | 0.00 | 0.00 | 40 | 1004.2 |
| 20260508030129 | 12 | 28 | 0.0 | 0.0 | 0.00 | 0.00 | 0.00 | 39 | 1004.2 |
| 20260508025859 | 12 | 28 | 0.0 | 0.0 | 0.00 | 0.00 | 0.00 | 40 | 1004.2 |
| 20260508025057 | 13 | 28 | 0.0 | 0.0 | 0.00 | 0.00 | 0.00 | 39 | 1004.0 |
| 20260508024525 | 13 | 28 | 0.0 | 0.0 | 0.00 | 0.00 | 0.00 | 40 | 1004.0 |
| 20260508024014 | 13 | 28 | 0.0 | 0.0 | 0.00 | 0.00 | 0.00 | 39 | 1004.1 |
| 20260508023503 | 13 | 28 | 0.0 | 0.0 | 0.00 | 0.00 | 0.00 | 39 | 1003.9 |
| 20260508023002 | 13 | 0 | 0.0 | 0.0 | 0.00 | 0.00 | 0.00 | 37 | 1004.0 |
| 20260508022501 | 14 | 28 | 0.0 | 0.0 | 0.00 | 0.00 | 0.00 | 36 | 1004.0 |
| 20260508021955 | 14 | 28 | 0.0 | 0.0 | 0.00 | 0.00 | 0.00 | 35 | 1003.9 |
| 20260508021441 | 15 | 28 | 0.0 | 0.0 | 0.00 | 0.00 | 0.00 | 34 | 1004.0 |
| 20260508021155 | 15 | 28 | 0.0 | 0.0 | 0.00 | 0.00 | 0.00 | 33 | 1004.0 |
| 20260508020704 | 15 | 28 | 0.0 | 1.6 | 0.00 | 0.00 | 0.00 | 33 | 1003.9 |
| 20260508020126 | 15 | 28 | 0.0 | 1.6 | 0.00 | 0.00 | 0.00 | 33 | 1003.9 |
| 20260508015407 | 15 | 28 | 0.0 | 0.0 | 0.00 | 0.00 | 0.00 | 33 | 1003.9 |
| 20260508014841 | 15 | 28 | 0.0 | 0.0 | 0.00 | 0.00 | 0.00 | 32 | 1003.8 |
| 20260508014327 | 16 | 28 | 0.0 | 0.0 | 0.00 | 0.00 | 0.00 | 32 | 1003.9 |
| 20260508013820 | 16 | 28 | 0.0 | 0.0 | 0.00 | 0.00 | 0.00 | 30 | 1003.6 |
| 20260508013304 | 17 | 28 | 0.0 | 1.6 | 0.00 | 0.00 | 0.00 | 30 | 1003.7 |
| 20260508012742 | 17 | 28 | 0.0 | 1.6 | 0.00 | 0.00 | 0.00 | 29 | 1003.7 |
| 20260508012450 | 17 | 32 | 0.0 | 3.2 | 0.00 | 0.00 | 0.00 | 29 | 1003.4 |
| 20260508011723 | 17 | 32 | 0.0 | 3.2 | 0.00 | 0.00 | 0.00 | 28 | 1003.4 |
| 20260508011154 | 18 | 5 | 1.6 | 4.8 | 0.00 | 0.00 | 0.00 | 27 | 1003.5 |
| 20260508010652 | 18 | 11 | 1.6 | 6.4 | 0.00 | 0.00 | 0.00 | 27 | 1003.6 |
| 20260508010412 | 18 | 29 | 1.6 | 6.4 | 0.00 | 0.00 | 0.00 | 28 | 1003.7 |
| 20260508010248 | 18 | 37 | 1.6 | 6.4 | 0.00 | 0.00 | 0.00 | 28 | 1003.6 |
| 20260508005149 | 18 | 59 | 3.2 | 8.0 | 0.00 | 0.00 | 0.00 | 27 | 1003.3 |
| 20260508004650 | 19 | 340 | 3.2 | 8.0 | 0.00 | 0.00 | 0.00 | 26 | 1003.4 |
| 20260508004149 | 20 | 25 | 1.6 | 14.5 | 0.00 | 0.00 | 0.00 | 25 | 1003.4 |
| 20260508003642 | 20 | 349 | 1.6 | 14.5 | 0.00 | 0.00 | 0.00 | 24 | 1003.3 |
| 20260508003138 | 20 | 13 | 3.2 | 9.7 | 0.00 | 0.00 | 0.00 | 23 | 1003.3 |
| 20260508002633 | 20 | 278 | 3.2 | 9.7 | 0.00 | 0.00 | 0.00 | 23 | 1003.3 |
| 20260508002133 | 20 | 52 | 1.6 | 11.3 | 0.00 | 0.00 | 0.00 | 22 | 1003.2 |
| 20260508001633 | 20 | 355 | 1.6 | 11.3 | 0.00 | 0.00 | 0.00 | 22 | 1003.2 |
| 20260508001131 | 20 | 321 | 3.2 | 9.7 | 0.00 | 0.00 | 0.00 | 23 | 1003.2 |
| 20260508000633 | 20 | 252 | 4.8 | 9.7 | 0.00 | 0.00 | 0.00 | 23 | 1003.3 |
| 20260508000132 | 20 | 274 | 3.2 | 9.7 | 0.00 | 0.00 | 0.00 | 22 | 1003.3 |
| 20260507235633 | 21 | 286 | 3.2 | 8.0 | 0.00 | 0.00 | 0.00 | 22 | 1003.4 |
| 20260507235133 | 21 | 232 | 3.2 | 8.0 | 0.00 | 0.00 | 0.00 | 24 | 1003.3 |
| 20260507234844 | 21 | 258 | 1.6 | 8.0 | 0.00 | 0.00 | 0.00 | 23 | 1003.3 |
| 20260507234115 | 21 | 315 | 1.6 | 6.4 | 0.00 | 0.00 | 0.00 | 23 | 1003.3 |
| 20260507233605 | 21 | 305 | 3.2 | 8.0 | 0.00 | 0.00 | 0.00 | 22 | 1003.1 |
| 20260507233317 | 21 | 59 | 3.2 | 9.7 | 0.00 | 0.00 | 0.00 | 23 | 1003.2 |
| 20260507232548 | 21 | 333 | 3.2 | 9.7 | 0.00 | 0.00 | 0.00 | 23 | 1003.2 |
| 20260507232042 | 21 | 288 | 4.8 | 14.5 | 0.00 | 0.00 | 0.00 | 23 | 1003.1 |
| 20260507231536 | 21 | 309 | 4.8 | 14.5 | 0.00 | 0.00 | 0.00 | 23 | 1003.1 |
| 20260507231031 | 21 | 10 | 3.2 | 8.0 | 0.00 | 0.00 | 0.00 | 24 | 1003.1 |
| 20260507230525 | 22 | 34 | 3.2 | 11.3 | 0.00 | 0.00 | 0.00 | 23 | 1003.1 |
| 20260507230019 | 22 | 34 | 3.2 | 11.3 | 0.00 | 0.00 | 0.00 | 23 | 1003.2 |
| 20260507225506 | 22 | 286 | 3.2 | 9.7 | 0.00 | 0.00 | 0.00 | 23 | 1003.2 |
| 20260507225452 | 22 | 275 | 4.8 | 11.3 | 0.00 | 0.00 | 0.00 | 22 | 1003.0 |
| 20260507224501 | 22 | 349 | 4.8 | 11.3 | 0.00 | 0.00 | 0.00 | 22 | 1003.0 |
| 20260507223951 | 22 | 298 | 3.2 | 11.3 | 0.00 | 0.00 | 0.00 | 21 | 1003.1 |
| 20260507223937 | 22 | 26 | 3.2 | 11.3 | 0.00 | 0.00 | 0.00 | 23 | 1003.1 |
| 20260507222937 | 22 | 355 | 1.6 | 9.7 | 0.00 | 0.00 | 0.00 | 23 | 1003.1 |
| 20260507222431 | 22 | 198 | 3.2 | 11.3 | 0.00 | 0.00 | 0.00 | 24 | 1003.1 |
| 20260507222141 | 22 | 288 | 4.8 | 14.5 | 0.00 | 0.00 | 0.00 | 23 | 1003.1 |
| 20260507221415 | 22 | 206 | 4.8 | 14.5 | 0.00 | 0.00 | 0.00 | 23 | 1003.2 |
| 20260507220906 | 22 | 276 | 3.2 | 14.5 | 0.00 | 0.00 | 0.00 | 21 | 1003.2 |
| 20260507220400 | 22 | 341 | 3.2 | 11.3 | 0.00 | 0.00 | 0.00 | 22 | 1003.2 |
| 20260507215848 | 22 | 242 | 4.8 | 11.3 | 0.00 | 0.00 | 0.00 | 23 | 1003.2 |
| 20260507215345 | 21 | 259 | 4.8 | 12.9 | 0.00 | 0.00 | 0.00 | 24 | 1003.3 |
| 20260507214839 | 21 | 238 | 3.2 | 12.9 | 0.00 | 0.00 | 0.00 | 22 | 1003.2 |
| 20260507214329 | 21 | 338 | 3.2 | 11.3 | 0.00 | 0.00 | 0.00 | 23 | 1003.2 |
| 20260507213829 | 21 | 259 | 4.8 | 16.1 | 0.00 | 0.00 | 0.00 | 22 | 1003.2 |
| 20260507213323 | 22 | 329 | 6.4 | 22.5 | 0.00 | 0.00 | 0.00 | 22 | 1003.2 |
| 20260507212817 | 22 | 17 | 6.4 | 22.5 | 0.00 | 0.00 | 0.00 | 24 | 1003.2 |
| 20260507212309 | 22 | 26 | 4.8 | 16.1 | 0.00 | 0.00 | 0.00 | 22 | 1003.6 |
| 20260507212028 | 21 | 298 | 3.2 | 9.7 | 0.00 | 0.00 | 0.00 | 24 | 1003.6 |
| 20260507211259 | 21 | 286 | 4.8 | 11.3 | 0.00 | 0.00 | 0.00 | 24 | 1003.5 |
| 20260507210749 | 21 | 236 | 3.2 | 11.3 | 0.00 | 0.00 | 0.00 | 24 | 1003.5 |
| 20260507210245 | 21 | 258 | 3.2 | 9.7 | 0.00 | 0.00 | 0.00 | 25 | 1003.5 |
| 20260507205738 | 21 | 19 | 3.2 | 17.7 | 0.00 | 0.00 | 0.00 | 25 | 1003.5 |
| 20260507205232 | 20 | 250 | 3.2 | 17.7 | 0.00 | 0.00 | 0.00 | 26 | 1003.7 |
| 20260507204726 | 21 | 267 | 3.2 | 11.3 | 0.00 | 0.00 | 0.00 | 25 | 1003.7 |
| 20260507204216 | 21 | 313 | 4.8 | 16.1 | 0.00 | 0.00 | 0.00 | 25 | 1003.8 |
| 20260507203714 | 21 | 269 | 6.4 | 22.5 | 0.00 | 0.00 | 0.00 | 24 | 1003.9 |
| 20260507203208 | 21 | 219 | 8.0 | 22.5 | 0.00 | 0.00 | 0.00 | 23 | 1003.9 |
| 20260507202702 | 21 | 273 | 4.8 | 16.1 | 0.00 | 0.00 | 0.00 | 24 | 1003.9 |
| 20260507202156 | 21 | 304 | 4.8 | 16.1 | 0.00 | 0.00 | 0.00 | 26 | 1004.0 |
| 20260507201645 | 21 | 322 | 4.8 | 16.1 | 0.00 | 0.00 | 0.00 | 24 | 1004.0 |
| 20260507201144 | 21 | 182 | 4.8 | 16.1 | 0.00 | 0.00 | 0.00 | 25 | 1004.0 |
| 20260507200634 | 20 | 280 | 4.8 | 17.7 | 0.00 | 0.00 | 0.00 | 27 | 1004.3 |
| 20260507200132 | 20 | 318 | 6.4 | 17.7 | 0.00 | 0.00 | 0.00 | 24 | 1004.2 |
| 20260507195627 | 20 | 230 | 8.0 | 17.7 | 0.00 | 0.00 | 0.00 | 25 | 1004.2 |
| 20260507195120 | 20 | 203 | 6.4 | 19.3 | 0.00 | 0.00 | 0.00 | 25 | 1004.3 |
| 20260507194614 | 21 | 192 | 6.4 | 19.3 | 0.00 | 0.00 | 0.00 | 26 | 1004.4 |
| 20260507194103 | 20 | 287 | 6.4 | 19.3 | 0.00 | 0.00 | 0.00 | 24 | 1004.3 |
| 20260507193602 | 20 | 269 | 6.4 | 19.3 | 0.00 | 0.00 | 0.00 | 24 | 1004.5 |
| 20260507193057 | 20 | 224 | 6.4 | 16.1 | 0.00 | 0.00 | 0.00 | 25 | 1004.5 |
| 20260507193039 | 20 | 201 | 4.8 | 16.1 | 0.00 | 0.00 | 0.00 | 25 | 1004.5 |
| 20260507192310 | 20 | 273 | 6.4 | 19.3 | 0.00 | 0.00 | 0.00 | 27 | 1004.5 |
| 20260507191536 | 20 | 171 | 8.0 | 24.1 | 0.00 | 0.00 | 0.00 | 26 | 1004.5 |
| 20260507191252 | 19 | 208 | 8.0 | 24.1 | 0.00 | 0.00 | 0.00 | 25 | 1004.4 |
| 20260507190522 | 19 | 268 | 6.4 | 16.1 | 0.00 | 0.00 | 0.00 | 26 | 1004.8 |
| 20260507190023 | 19 | 257 | 6.4 | 20.9 | 0.00 | 0.00 | 0.00 | 28 | 1004.8 |
| 20260507185506 | 19 | 284 | 8.0 | 20.9 | 0.00 | 0.00 | 0.00 | 26 | 1004.8 |
| 20260507185230 | 19 | 227 | 8.0 | 20.9 | 0.00 | 0.00 | 0.00 | 25 | 1004.8 |
| 20260507184500 | 19 | 234 | 6.4 | 19.3 | 0.00 | 0.00 | 0.00 | 26 | 1004.8 |
| 20260507184214 | 19 | 192 | 6.4 | 19.3 | 0.00 | 0.00 | 0.00 | 26 | 1004.8 |
| 20260507183442 | 19 | 182 | 6.4 | 17.7 | 0.00 | 0.00 | 0.00 | 27 | 1005.0 |
| 20260507182940 | 19 | 216 | 8.0 | 22.5 | 0.00 | 0.00 | 0.00 | 26 | 1005.0 |
| 20260507182436 | 19 | 212 | 8.0 | 22.5 | 0.00 | 0.00 | 0.00 | 28 | 1005.0 |
| 20260507181930 | 18 | 267 | 6.4 | 17.7 | 0.00 | 0.00 | 0.00 | 27 | 1005.0 |
| 20260507181424 | 18 | 264 | 6.4 | 19.3 | 0.00 | 0.00 | 0.00 | 27 | 1005.0 |
| 20260507180921 | 18 | 300 | 8.0 | 24.1 | 0.00 | 0.00 | 0.00 | 27 | 1005.0 |
| 20260507180413 | 18 | 225 | 9.7 | 24.1 | 0.00 | 0.00 | 0.00 | 27 | 1005.5 |
| 20260507175907 | 18 | 252 | 6.4 | 17.7 | 0.00 | 0.00 | 0.00 | 28 | 1005.5 |
| 20260507175401 | 18 | 266 | 8.0 | 20.9 | 0.00 | 0.00 | 0.00 | 31 | 1005.6 |
| 20260507174855 | 18 | 148 | 8.0 | 20.9 | 0.00 | 0.00 | 0.00 | 31 | 1005.6 |
| 20260507174345 | 18 | 242 | 6.4 | 22.5 | 0.00 | 0.00 | 0.00 | 31 | 1005.6 |
| 20260507173843 | 18 | 271 | 8.0 | 22.5 | 0.00 | 0.00 | 0.00 | 30 | 1005.8 |
| 20260507173333 | 18 | 273 | 8.0 | 20.9 | 0.00 | 0.00 | 0.00 | 30 | 1005.8 |
| 20260507172831 | 17 | 242 | 8.0 | 20.9 | 0.00 | 0.00 | 0.00 | 34 | 1005.7 |
| 20260507172322 | 17 | 254 | 6.4 | 20.9 | 0.00 | 0.00 | 0.00 | 34 | 1006.1 |
| 20260507171818 | 17 | 300 | 6.4 | 20.9 | 0.00 | 0.00 | 0.00 | 34 | 1006.1 |
| 20260507171312 | 17 | 195 | 6.4 | 25.7 | 0.00 | 0.00 | 0.00 | 34 | 1006.1 |
| 20260507170800 | 17 | 296 | 6.4 | 25.7 | 0.00 | 0.00 | 0.00 | 36 | 1006.3 |
| 20260507170520 | 17 | 289 | 6.4 | 20.9 | 0.00 | 0.00 | 0.00 | 38 | 1006.3 |
| 20260507165756 | 17 | 243 | 6.4 | 20.9 | 0.00 | 0.00 | 0.00 | 39 | 1006.3 |
| 20260507165249 | 16 | 281 | 8.0 | 17.7 | 0.00 | 0.00 | 0.00 | 39 | 1006.4 |
| 20260507164744 | 16 | 290 | 6.4 | 16.1 | 0.00 | 0.00 | 0.00 | 39 | 1006.3 |
| 20260507164232 | 16 | 268 | 4.8 | 16.1 | 0.00 | 0.00 | 0.00 | 38 | 1006.3 |
| 20260507163731 | 16 | 290 | 4.8 | 11.3 | 0.00 | 0.00 | 0.00 | 40 | 1006.5 |
| 20260507163227 | 16 | 238 | 4.8 | 11.3 | 0.00 | 0.00 | 0.00 | 39 | 1006.5 |
| 20260507162950 | 16 | 273 | 4.8 | 11.3 | 0.00 | 0.00 | 0.00 | 40 | 1006.5 |
| 20260507162225 | 16 | 197 | 4.8 | 9.7 | 0.00 | 0.00 | 0.00 | 43 | 1006.8 |
| 20260507161725 | 15 | 254 | 6.4 | 14.5 | 0.00 | 0.00 | 0.00 | 43 | 1006.8 |
| 20260507161226 | 15 | 257 | 6.4 | 17.7 | 0.00 | 0.00 | 0.00 | 47 | 1006.8 |
| 20260507160723 | 15 | 232 | 6.4 | 17.7 | 0.00 | 0.00 | 0.00 | 44 | 1006.6 |
| 20260507160222 | 15 | 271 | 8.0 | 16.1 | 0.00 | 0.00 | 0.00 | 43 | 1006.6 |
| 20260507155941 | 15 | 248 | 6.4 | 19.3 | 0.00 | 0.00 | 0.00 | 44 | 1006.6 |
| 20260507155220 | 15 | 263 | 6.4 | 19.3 | 0.00 | 0.00 | 0.00 | 46 | 1006.7 |
| 20260507154721 | 15 | 213 | 6.4 | 19.3 | 0.00 | 0.00 | 0.00 | 44 | 1006.6 |
| 20260507154218 | 15 | 234 | 6.4 | 17.7 | 0.00 | 0.00 | 0.00 | 45 | 1006.7 |
| 20260507153950 | 15 | 14 | 6.4 | 17.7 | 0.00 | 0.00 | 0.00 | 45 | 1006.7 |
| 20260507153218 | 15 | 198 | 6.4 | 20.9 | 0.00 | 0.00 | 0.00 | 46 | 1006.7 |
| 20260507152725 | 15 | 240 | 6.4 | 20.9 | 0.00 | 0.00 | 0.00 | 46 | 1006.7 |
| 20260507152219 | 15 | 250 | 6.4 | 17.7 | 0.00 | 0.00 | 0.00 | 47 | 1006.8 |
| 20260507151714 | 15 | 209 | 6.4 | 17.7 | 0.00 | 0.00 | 0.00 | 47 | 1006.8 |
| 20260507151205 | 14 | 212 | 6.4 | 16.1 | 0.00 | 0.00 | 0.00 | 47 | 1006.7 |
| 20260507150707 | 14 | 232 | 4.8 | 16.1 | 0.00 | 0.00 | 0.00 | 48 | 1006.7 |
| 20260507150204 | 13 | 281 | 4.8 | 17.7 | 0.00 | 0.00 | 0.00 | 51 | 1006.6 |
| 20260507145704 | 13 | 277 | 4.8 | 17.7 | 0.00 | 0.00 | 0.00 | 51 | 1006.6 |
| 20260507145205 | 13 | 246 | 6.4 | 16.1 | 0.00 | 0.00 | 0.00 | 54 | 1006.6 |
| 20260507144702 | 13 | 264 | 6.4 | 16.1 | 0.00 | 0.00 | 0.00 | 53 | 1006.6 |
| 20260507144203 | 12 | 274 | 6.4 | 16.1 | 0.00 | 0.00 | 0.00 | 54 | 1006.6 |
| 20260507143703 | 12 | 285 | 4.8 | 16.1 | 0.00 | 0.00 | 0.00 | 58 | 1006.7 |
| 20260507143206 | 12 | 234 | 4.8 | 16.1 | 0.00 | 0.00 | 0.00 | 60 | 1006.7 |
| 20260507142921 | 11 | 288 | 6.4 | 16.1 | 0.00 | 0.00 | 0.00 | 61 | 1006.6 |
| 20260507142153 | 11 | 203 | 6.4 | 11.3 | 0.00 | 0.00 | 0.00 | 61 | 1006.6 |
| 20260507141650 | 11 | 216 | 6.4 | 16.1 | 0.00 | 0.00 | 0.00 | 63 | 1006.5 |
| 20260507141409 | 10 | 200 | 6.4 | 16.1 | 0.00 | 0.00 | 0.00 | 65 | 1006.5 |
| 20260507140647 | 10 | 207 | 6.4 | 16.1 | 0.00 | 0.00 | 0.00 | 65 | 1006.5 |
| 20260507140146 | 10 | 167 | 4.8 | 11.3 | 0.00 | 0.00 | 0.00 | 66 | 1006.5 |
| 20260507135648 | 9 | 214 | 6.4 | 19.3 | 0.00 | 0.00 | 0.00 | 68 | 1006.4 |
| 20260507135147 | 9 | 221 | 6.4 | 19.3 | 0.00 | 0.00 | 0.00 | 70 | 1006.4 |
| 20260507134648 | 8 | 186 | 6.4 | 20.9 | 0.00 | 0.00 | 0.00 | 71 | 1006.4 |
| 20260507134634 | 8 | 240 | 4.8 | 20.9 | 0.00 | 0.00 | 0.00 | 73 | 1006.3 |
| 20260507133644 | 8 | 0 | 4.8 | 17.7 | 0.00 | 0.00 | 0.00 | 73 | 1006.5 |
| 20260507133132 | 7 | 290 | 4.8 | 14.5 | 0.00 | 0.00 | 0.00 | 74 | 1006.4 |
| 20260507132623 | 7 | 184 | 4.8 | 14.5 | 0.00 | 0.00 | 0.00 | 74 | 1006.4 |
| 20260507132110 | 7 | 176 | 3.2 | 9.7 | 0.00 | 0.00 | 0.00 | 74 | 1006.5 |
| 20260507131602 | 7 | 207 | 4.8 | 11.3 | 0.00 | 0.00 | 0.00 | 74 | 1006.5 |
| 20260507131319 | 7 | 199 | 4.8 | 12.9 | 0.00 | 0.00 | 0.00 | 74 | 1006.5 |
| 20260507130808 | 7 | 200 | 4.8 | 12.9 | 0.00 | 0.00 | 0.00 | 74 | 1006.2 |
| 20260507130038 | 7 | 182 | 4.8 | 16.1 | 0.00 | 0.00 | 0.00 | 74 | 1006.2 |
| 20260507125523 | 7 | 188 | 4.8 | 16.1 | 0.00 | 0.00 | 0.00 | 74 | 1006.2 |
| 20260507125022 | 6 | 166 | 3.2 | 11.3 | 0.00 | 0.00 | 0.00 | 74 | 1006.2 |
| 20260507124731 | 6 | 207 | 3.2 | 11.3 | 0.00 | 0.00 | 0.00 | 75 | 1006.1 |
| 20260507124008 | 6 | 180 | 1.6 | 11.3 | 0.00 | 0.00 | 0.00 | 75 | 1006.1 |
| 20260507123501 | 6 | 194 | 1.6 | 8.0 | 0.00 | 0.00 | 0.00 | 75 | 1006.2 |
| 20260507122955 | 6 | 184 | 1.6 | 6.4 | 0.00 | 0.00 | 0.00 | 75 | 1006.2 |
| 20260507122456 | 6 | 149 | 0.0 | 4.8 | 0.00 | 0.00 | 0.00 | 75 | 1006.1 |
| 20260507121954 | 5 | 188 | 1.6 | 4.8 | 0.00 | 0.00 | 0.00 | 74 | 1006.1 |
| 20260507121933 | 5 | 139 | 0.0 | 4.8 | 0.00 | 0.00 | 0.00 | 74 | 1006.1 |
| 20260507120908 | 5 | 208 | 0.0 | 4.8 | 0.00 | 0.00 | 0.00 | 74 | 1006.0 |
| 20260507120413 | 5 | 148 | 0.0 | 3.2 | 0.00 | 0.00 | 0.00 | 73 | 1005.9 |
| 20260507115846 | 5 | 189 | 0.0 | 6.4 | 0.00 | 0.00 | 0.00 | 73 | 1005.9 |
| 20260507115337 | 5 | 188 | 0.0 | 6.4 | 0.00 | 0.00 | 0.00 | 73 | 1006.0 |
| 20260507114816 | 5 | 142 | 0.0 | 1.6 | 0.00 | 0.00 | 0.00 | 72 | 1005.9 |
| 20260507114306 | 4 | 191 | 0.0 | 1.6 | 0.00 | 0.00 | 0.00 | 71 | 1005.9 |
| 20260507113751 | 4 | 191 | 0.0 | 0.0 | 0.00 | 0.00 | 0.00 | 71 | 1005.9 |
| 20260507113213 | 4 | 191 | 0.0 | 1.6 | 0.00 | 0.00 | 0.00 | 71 | 1005.9 |
| 20260507112655 | 4 | 191 | 0.0 | 1.6 | 0.00 | 0.00 | 0.00 | 70 | 1005.9 |
| 20260507112149 | 4 | 192 | 0.0 | 1.6 | 0.00 | 0.00 | 0.00 | 69 | 1005.8 |
| 20260507111641 | 4 | 192 | 0.0 | 3.2 | 0.00 | 0.00 | 0.00 | 69 | 1005.8 |
| 20260507111404 | 4 | 192 | 0.0 | 3.2 | 0.00 | 0.00 | 0.00 | 68 | 1005.8 |
| 20260507110623 | 4 | 192 | 0.0 | 3.2 | 0.00 | 0.00 | 0.00 | 68 | 1005.8 |
| 20260507110104 | 4 | 192 | 0.0 | 3.2 | 0.00 | 0.00 | 0.00 | 67 | 1005.8 |
| 20260507105558 | 4 | 160 | 0.0 | 1.6 | 0.00 | 0.00 | 0.00 | 66 | 1005.8 |
| 20260507105045 | 4 | 160 | 0.0 | 1.6 | 0.00 | 0.00 | 0.00 | 66 | 1005.8 |
| 20260507104548 | 4 | 157 | 0.0 | 3.2 | 0.00 | 0.00 | 0.00 | 65 | 1005.8 |
| 20260507104013 | 4 | 150 | 0.0 | 1.6 | 0.00 | 0.00 | 0.00 | 65 | 1005.8 |
| 20260507103727 | 4 | 150 | 0.0 | 1.6 | 0.00 | 0.00 | 0.00 | 64 | 1005.8 |
| 20260507102958 | 4 | 147 | 0.0 | 1.6 | 0.00 | 0.00 | 0.00 | 63 | 1005.8 |
| 20260507102454 | 4 | 157 | 0.0 | 0.0 | 0.00 | 0.00 | 0.00 | 62 | 1005.8 |
| 20260507101929 | 5 | 157 | 0.0 | 1.6 | 0.00 | 0.00 | 0.00 | 61 | 1005.9 |
| 20260507101414 | 5 | 157 | 0.0 | 3.2 | 0.00 | 0.00 | 0.00 | 60 | 1006.0 |
| 20260507100912 | 5 | 186 | 0.0 | 3.2 | 0.00 | 0.00 | 0.00 | 60 | 1006.0 |
| 20260507100408 | 5 | 187 | 0.0 | 3.2 | 0.00 | 0.00 | 0.00 | 59 | 1006.3 |
| 20260507100125 | 5 | 190 | 0.0 | 3.2 | 0.00 | 0.00 | 0.00 | 58 | 1006.3 |
| 20260507095400 | 5 | 190 | 0.0 | 3.2 | 0.00 | 0.00 | 0.00 | 58 | 1006.3 |
| 20260507094859 | 5 | 190 | 0.0 | 3.2 | 0.00 | 0.00 | 0.00 | 57 | 1006.3 |
| 20260507094558 | 5 | 149 | 0.0 | 3.2 | 0.00 | 0.00 | 0.00 | 57 | 1006.3 |
| 20260507093819 | 5 | 190 | 0.0 | 1.6 | 0.00 | 0.00 | 0.00 | 56 | 1006.4 |
| 20260507093316 | 5 | 188 | 0.0 | 3.2 | 0.00 | 0.00 | 0.00 | 55 | 1006.4 |
| 20260507092750 | 5 | 188 | 0.0 | 3.2 | 0.00 | 0.00 | 0.00 | 54 | 1006.5 |
| 20260507092246 | 6 | 188 | 1.6 | 4.8 | 0.00 | 0.00 | 0.00 | 54 | 1006.5 |
| 20260507091743 | 6 | 188 | 1.6 | 8.0 | 0.00 | 0.00 | 0.00 | 53 | 1006.5 |
| 20260507091234 | 6 | 211 | 1.6 | 8.0 | 0.00 | 0.00 | 0.00 | 53 | 1006.5 |
| 20260507090719 | 6 | 210 | 1.6 | 8.0 | 0.00 | 0.00 | 0.00 | 52 | 1006.8 |
| 20260507090442 | 6 | 156 | 1.6 | 9.7 | 0.00 | 0.00 | 0.00 | 52 | 1006.8 |
| 20260507085713 | 6 | 205 | 1.6 | 9.7 | 0.00 | 0.00 | 0.00 | 53 | 1006.8 |
| 20260507085208 | 6 | 208 | 0.0 | 4.8 | 0.00 | 0.00 | 0.00 | 53 | 1006.8 |
| 20260507084710 | 6 | 194 | 1.6 | 6.4 | 0.00 | 0.00 | 0.00 | 53 | 1006.8 |
| 20260507084201 | 6 | 203 | 1.6 | 6.4 | 0.00 | 0.00 | 0.00 | 52 | 1006.8 |
| 20260507083659 | 6 | 168 | 1.6 | 6.4 | 0.00 | 0.00 | 0.00 | 51 | 1007.0 |
| 20260507083202 | 6 | 221 | 1.6 | 8.0 | 0.00 | 0.00 | 0.00 | 51 | 1007.0 |
| 20260507083141 | 5 | 161 | 1.6 | 8.0 | 0.00 | 0.00 | 0.00 | 51 | 1006.9 |
| 20260507082157 | 5 | 205 | 0.0 | 4.8 | 0.00 | 0.00 | 0.00 | 51 | 1007.0 |
| 20260507081648 | 5 | 162 | 1.6 | 6.4 | 0.00 | 0.00 | 0.00 | 51 | 1007.0 |
| 20260507081149 | 5 | 162 | 1.6 | 6.4 | 0.00 | 0.00 | 0.00 | 50 | 1007.0 |
| 20260507080649 | 5 | 137 | 1.6 | 6.4 | 0.00 | 0.00 | 0.00 | 50 | 1007.2 |
| 20260507080143 | 5 | 167 | 1.6 | 8.0 | 0.00 | 0.00 | 0.00 | 51 | 1007.2 |
| 20260507075620 | 5 | 215 | 1.6 | 8.0 | 0.00 | 0.00 | 0.00 | 52 | 1007.1 |
| 20260507075342 | 5 | 175 | 0.0 | 6.4 | 0.00 | 0.00 | 0.00 | 54 | 1007.2 |
| 20260507074611 | 5 | 200 | 0.0 | 1.6 | 0.00 | 0.00 | 0.00 | 54 | 1007.2 |
| 20260507074332 | 5 | 200 | 0.0 | 1.6 | 0.00 | 0.00 | 0.00 | 55 | 1007.2 |
| 20260507073828 | 5 | 200 | 0.0 | 1.6 | 0.00 | 0.00 | 0.00 | 54 | 1007.5 |
| 20260507073052 | 5 | 200 | 0.0 | 1.6 | 0.00 | 0.00 | 0.00 | 55 | 1007.5 |
| 20260507072809 | 5 | 200 | 0.0 | 0.0 | 0.00 | 0.00 | 0.00 | 54 | 1007.5 |
| 20260507072235 | 5 | 200 | 0.0 | 1.6 | 0.00 | 0.00 | 0.00 | 54 | 1007.7 |
| 20260507071509 | 4 | 200 | 0.0 | 1.6 | 0.00 | 0.00 | 0.00 | 54 | 1007.6 |
| 20260507071006 | 4 | 200 | 0.0 | 1.6 | 0.00 | 0.00 | 0.00 | 54 | 1007.6 |
| 20260507070500 | 4 | 200 | 0.0 | 1.6 | 0.00 | 0.00 | 0.00 | 54 | 1007.9 |
| 20260507065953 | 4 | 200 | 0.0 | 3.2 | 0.00 | 0.00 | 0.00 | 54 | 1007.9 |
| 20260507065448 | 4 | 201 | 0.0 | 3.2 | 0.00 | 0.00 | 0.00 | 54 | 1007.8 |
| 20260507064939 | 3 | 229 | 0.0 | 1.6 | 0.00 | 0.00 | 0.00 | 54 | 1008.1 |
| 20260507064417 | 4 | 239 | 0.0 | 0.0 | 0.00 | 0.00 | 0.00 | 54 | 1008.1 |
| 20260507063914 | 4 | 239 | 0.0 | 0.0 | 0.00 | 0.00 | 0.00 | 54 | 1008.1 |
| 20260507063359 | 4 | 239 | 0.0 | 0.0 | 0.00 | 0.00 | 0.00 | 54 | 1008.1 |
| 20260507063342 | 4 | 239 | 0.0 | 0.0 | 0.00 | 0.00 | 0.00 | 54 | 1008.3 |
| 20260507062334 | 4 | 239 | 0.0 | 0.0 | 0.00 | 0.00 | 0.00 | 53 | 1008.5 |
| 20260507061749 | 4 | 239 | 0.0 | 0.0 | 0.00 | 0.00 | 0.00 | 53 | 1008.5 |
| 20260507061250 | 4 | 239 | 0.0 | 0.0 | 0.00 | 0.00 | 0.00 | 53 | 1008.5 |
| 20260507060733 | 4 | 239 | 0.0 | 0.0 | 0.00 | 0.00 | 0.00 | 52 | 1008.6 |
| 20260507060220 | 4 | 239 | 0.0 | 0.0 | 0.00 | 0.00 | 0.00 | 52 | 1008.6 |
| 20260507055934 | 4 | 239 | 0.0 | 0.0 | 0.00 | 0.00 | 0.00 | 52 | 1008.6 |
| 20260507055159 | 4 | 239 | 0.0 | 0.0 | 0.00 | 0.00 | 0.00 | 51 | 1008.7 |
| 20260507054909 | 4 | 239 | 0.0 | 0.0 | 0.00 | 0.00 | 0.00 | 51 | 1008.7 |
| 20260507054150 | 5 | 239 | 0.0 | 0.0 | 0.00 | 0.00 | 0.00 | 50 | 1008.7 |
| 20260507053647 | 5 | 239 | 0.0 | 0.0 | 0.00 | 0.00 | 0.00 | 50 | 1008.7 |
| 20260507053139 | 5 | 239 | 0.0 | 0.0 | 0.00 | 0.00 | 0.00 | 49 | 1008.7 |
| 20260507052622 | 5 | 239 | 0.0 | 0.0 | 0.00 | 0.00 | 0.00 | 49 | 1008.7 |
| 20260507052117 | 5 | 239 | 0.0 | 0.0 | 0.00 | 0.00 | 0.00 | 48 | 1008.8 |
| 20260507051647 | 5 | 239 | 0.0 | 0.0 | 0.00 | 0.00 | 0.00 | 49 | 1008.8 |
| 20260507051537 | 5 | 239 | 0.0 | 0.0 | 0.00 | 0.00 | 0.00 | 48 | 1008.8 |
| 20260507050437 | 5 | 239 | 0.0 | 0.0 | 0.00 | 0.00 | 0.00 | 48 | 1008.9 |
| 20260507045928 | 5 | 239 | 0.0 | 0.0 | 0.00 | 0.00 | 0.00 | 48 | 1008.9 |
| 20260507045648 | 5 | 239 | 0.0 | 0.0 | 0.00 | 0.00 | 0.00 | 47 | 1008.9 |
| 20260507044904 | 5 | 239 | 0.0 | 0.0 | 0.00 | 0.00 | 0.00 | 46 | 1008.9 |
| 20260507044356 | 5 | 239 | 0.0 | 0.0 | 0.00 | 0.00 | 0.00 | 46 | 1008.9 |
| 20260507044101 | 5 | 239 | 0.0 | 0.0 | 0.00 | 0.00 | 0.00 | 47 | 1009.1 |
| 20260507043331 | 5 | 238 | 0.0 | 0.0 | 0.00 | 0.00 | 0.00 | 47 | 1009.1 |
| 20260507042828 | 5 | 0 | 0.0 | 0.0 | 0.00 | 0.00 | 0.00 | 47 | 1009.1 |
| 20260507042325 | 5 | 238 | 0.0 | 0.0 | 0.00 | 0.00 | 0.00 | 47 | 1009.3 |
| 20260507041823 | 6 | 238 | 0.0 | 0.0 | 0.00 | 0.00 | 0.00 | 46 | 1009.4 |
| 20260507041322 | 6 | 238 | 0.0 | 0.0 | 0.00 | 0.00 | 0.00 | 45 | 1009.4 |
| 20260507040814 | 6 | 0 | 0.0 | 0.0 | 0.00 | 0.00 | 0.00 | 45 | 1009.5 |
| 20260507040741 | 6 | 0 | 0.0 | 0.0 | 0.00 | 0.00 | 0.00 | 44 | 1009.5 |